Location: Nebel
(54.6502°N, 8.3475°E)
Time: 05:40:37
(UTC+01:00)

BlueWalker 3 - Visible Passes

Search period start: 30 November 2022 00:00
Search period end: 10 December 2022 00:00
Orbit: 500 x 519 km, 53.2° (Epoch: 29 November)

Date Brightness Start Highest point End Pass type
(mag) Time Alt. Az. Time Alt. Az. Time Alt. Az.
30 Nov 2.4 17:36:09 10° WSW 17:39:58 52° SSE 17:42:28 20° E visible
30 Nov 3.1 19:14:35 10° W 19:17:18 42° WSW 19:17:18 42° WSW visible
01 Dec 2.4 17:17:45 10° WSW 17:21:36 54° SSE 17:24:49 14° E visible
01 Dec 2.3 18:56:13 10° W 18:59:38 62° SW 18:59:38 62° SW visible
02 Dec 2.4 16:59:22 10° WSW 17:03:13 55° SSE 17:07:02 10° E visible
02 Dec 1.9 18:37:50 10° W 18:41:45 72° S 18:41:58 69° SSE visible
02 Dec 5.2 20:16:30 10° W 20:16:48 12° W 20:16:48 12° W visible
03 Dec 2.5 16:40:57 10° WSW 16:44:49 57° SSE 16:48:40 10° E visible
03 Dec 2.0 18:19:27 10° W 18:23:21 71° S 18:24:20 47° ESE visible
03 Dec 4.8 19:58:07 10° W 19:59:09 17° W 19:59:09 17° W visible
04 Dec 2.1 18:01:03 10° W 18:04:58 71° S 18:06:43 31° ESE visible
04 Dec 4.2 19:39:44 10° W 19:41:33 23° WSW 19:41:33 23° WSW visible
05 Dec 2.1 17:42:39 10° W 17:46:34 70° S 17:49:09 20° ESE visible
05 Dec 3.6 19:21:20 10° W 19:23:59 31° WSW 19:23:59 31° WSW visible
06 Dec 2.2 17:24:14 10° W 17:28:09 70° S 17:31:39 12° ESE visible
06 Dec 3.2 19:02:56 10° W 19:06:29 35° SSW 19:06:29 35° SSW visible
07 Dec 2.2 17:05:50 10° W 17:09:44 69° S 17:13:37 10° ESE visible
07 Dec 3.3 18:44:32 10° W 18:48:06 34° SSW 18:49:05 29° S visible
08 Dec 2.3 16:47:24 10° W 16:51:19 68° S 16:55:12 10° ESE visible
08 Dec 3.5 18:26:08 10° W 18:29:40 33° SSW 18:31:48 19° SSE visible
09 Dec 3.6 18:07:42 10° W 18:11:13 32° SSW 18:14:41 10° SE visible
